| time (UTC) | temp F | wind direction | speed MPH | gust MPH | rain 1hr in | rain 24hr in | rain mn in | humidity % | barometer mb |
| 20260507125941 | 53 | 0 | 0.0 | 0.0 | 0.00 | 0.07 | 0.08 | 80 | 1013.7 |
| 20260507125631 | 53 | 0 | 0.0 | 0.0 | 0.00 | 0.07 | 0.08 | 80 | 1013.7 |
| 20260507124911 | 53 | 0 | 0.0 | 0.0 | 0.00 | 0.07 | 0.08 | 84 | 1013.8 |
| 20260507124131 | 53 | 0 | 0.0 | 0.0 | 0.00 | 0.07 | 0.08 | 84 | 1013.8 |
| 20260507123035 | 53 | 0 | 0.0 | 0.0 | 0.00 | 0.07 | 0.08 | 84 | 1013.8 |
| 20260507122831 | 53 | 0 | 0.0 | 0.0 | 0.00 | 0.07 | 0.08 | 84 | 1013.8 |
| 20260507121406 | 53 | 0 | 0.0 | 0.0 | 0.00 | 0.07 | 0.08 | 84 | 1013.8 |
| 20260507115941 | 52 | 0 | 0.0 | 0.0 | 0.00 | 0.07 | 0.08 | 85 | 1013.7 |
| 20260507114636 | 52 | 0 | 0.0 | 0.0 | 0.00 | 0.07 | 0.08 | 86 | 1013.4 |
| 20260507113216 | 52 | 0 | 0.0 | 0.0 | 0.00 | 0.07 | 0.08 | 88 | 1013.3 |
| 20260507111726 | 53 | 0 | 0.0 | 3.0 | 0.00 | 0.07 | 0.08 | 89 | 1013.1 |
| 20260507110456 | 53 | 0 | 0.0 | 0.0 | 0.00 | 0.07 | 0.08 | 90 | 1013.1 |
| 20260507105358 | 54 | 0 | 0.0 | 0.0 | 0.00 | 0.07 | 0.08 | 91 | 1013.2 |
| 20260507105256 | 54 | 0 | 0.0 | 0.0 | 0.00 | 0.07 | 0.08 | 91 | 1013.2 |
| 20260507103841 | 53 | 0 | 0.0 | 0.0 | 0.00 | 0.07 | 0.08 | 91 | 1012.9 |
| 20260507102517 | 53 | 0 | 0.0 | 0.0 | 0.00 | 0.07 | 0.08 | 90 | 1012.8 |
| 20260507101051 | 53 | 0 | 0.0 | 0.0 | 0.00 | 0.07 | 0.08 | 90 | 1012.9 |
| 20260507095920 | 53 | 0 | 0.0 | 0.0 | 0.00 | 0.07 | 0.08 | 91 | 1012.6 |
| 20260507095831 | 53 | 0 | 0.0 | 0.0 | 0.00 | 0.07 | 0.08 | 91 | 1012.6 |
| 20260507094616 | 53 | 0 | 0.0 | 0.0 | 0.00 | 0.07 | 0.08 | 91 | 1012.7 |
| 20260507093246 | 53 | 0 | 0.0 | 0.0 | 0.00 | 0.07 | 0.08 | 91 | 1012.6 |
| 20260507091901 | 54 | 0 | 0.0 | 0.0 | 0.00 | 0.07 | 0.08 | 91 | 1012.3 |
| 20260507090421 | 54 | 0 | 0.0 | 0.0 | 0.00 | 0.07 | 0.08 | 91 | 1012.5 |
| 20260507085354 | 54 | 0 | 0.0 | 0.0 | 0.00 | 0.07 | 0.08 | 90 | 1012.4 |
| 20260507084931 | 54 | 0 | 0.0 | 0.0 | 0.00 | 0.07 | 0.08 | 90 | 1012.4 |
| 20260507083839 | 54 | 0 | 0.0 | 0.0 | 0.00 | 0.07 | 0.08 | 90 | 1012.4 |
| 20260507083806 | 54 | 0 | 0.0 | 0.0 | 0.00 | 0.07 | 0.08 | 90 | 1012.4 |
| 20260507083731 | 54 | 0 | 0.0 | 0.0 | 0.00 | 0.07 | 0.08 | 90 | 1012.4 |
| 20260507082307 | 54 | 0 | 0.0 | 0.0 | 0.00 | 0.07 | 0.08 | 90 | 1012.2 |
| 20260507081101 | 54 | 0 | 0.0 | 0.0 | 0.01 | 0.07 | 0.08 | 90 | 1011.9 |
| 20260507075741 | 54 | 0 | 0.0 | 0.0 | 0.01 | 0.07 | 0.08 | 90 | 1011.6 |
| 20260507074536 | 54 | 0 | 0.0 | 0.0 | 0.01 | 0.07 | 0.08 | 90 | 1011.6 |
| 20260507073106 | 55 | 0 | 0.0 | 0.0 | 0.01 | 0.07 | 0.08 | 90 | 1011.4 |
| 20260507071816 | 55 | 0 | 0.0 | 3.0 | 0.01 | 0.07 | 0.08 | 91 | 1011.5 |
| 20260507070601 | 56 | 0 | 0.0 | 0.0 | 0.00 | 0.06 | 0.07 | 91 | 1011.4 |
| 20260507065331 | 56 | 0 | 0.0 | 0.0 | 0.00 | 0.06 | 0.07 | 91 | 1011.4 |
| 20260507063931 | 56 | 0 | 0.0 | 0.0 | 0.00 | 0.06 | 0.07 | 90 | 1011.7 |
| 20260507062648 | 56 | 0 | 0.0 | 0.0 | 0.00 | 0.06 | 0.07 | 90 | 1011.5 |
| 20260507061348 | 56 | 0 | 0.0 | 0.0 | 0.01 | 0.06 | 0.07 | 90 | 1011.4 |
| 20260507060101 | 57 | 0 | 0.0 | 0.0 | 0.01 | 0.06 | 0.07 | 89 | 1011.4 |
| 20260507054726 | 57 | 0 | 0.0 | 0.0 | 0.04 | 0.06 | 0.07 | 89 | 1011.2 |
| 20260507053336 | 57 | 0 | 0.0 | 0.0 | 0.06 | 0.06 | 0.07 | 88 | 1011.6 |
| 20260507052058 | 57 | 0 | 0.0 | 0.0 | 0.06 | 0.06 | 0.07 | 87 | 1011.2 |
| 20260507051946 | 57 | 0 | 0.0 | 0.0 | 0.06 | 0.06 | 0.07 | 87 | 1011.2 |
| 20260507050551 | 58 | 0 | 0.0 | 0.0 | 0.06 | 0.06 | 0.06 | 86 | 1011.5 |
| 20260507045443 | 59 | 0 | 0.0 | 0.0 | 0.04 | 0.04 | 0.05 | 83 | 1012.0 |
| 20260507045254 | 59 | 0 | 0.0 | 0.0 | 0.04 | 0.04 | 0.05 | 83 | 1012.0 |
| 20260507044036 | 60 | 0 | 0.0 | 0.0 | 0.03 | 0.03 | 0.03 | 81 | 1011.5 |
| 20260507042639 | 61 | 0 | 0.0 | 0.0 | 0.00 | 0.00 | 0.00 | 78 | 1011.8 |
| 20260507042541 | 61 | 0 | 0.0 | 0.0 | 0.00 | 0.00 | 0.00 | 78 | 1011.8 |
| 20260507041232 | 61 | 0 | 0.0 | 0.0 | 0.00 | 0.00 | 0.00 | 77 | 1011.5 |
| 20260507035951 | 62 | 0 | 0.0 | 0.0 | 0.00 | 0.00 | 0.00 | 77 | 1011.3 |
| 20260507034511 | 63 | 0 | 0.0 | 0.0 | 0.00 | 0.00 | 0.00 | 76 | 1010.9 |
| 20260507033245 | 63 | 0 | 0.0 | 0.0 | 0.00 | 0.00 | 0.00 | 76 | 1011.0 |
| 20260507033211 | 63 | 0 | 0.0 | 0.0 | 0.00 | 0.00 | 0.00 | 76 | 1011.0 |
| 20260507032006 | 63 | 0 | 0.0 | 0.0 | 0.00 | 0.00 | 0.00 | 75 | 1011.1 |
| 20260507030641 | 64 | 0 | 0.0 | 0.0 | 0.00 | 0.00 | 0.00 | 75 | 1010.6 |
| 20260507025442 | 64 | 0 | 0.0 | 0.0 | 0.00 | 0.00 | 0.00 | 75 | 1010.5 |
| 20260507025339 | 64 | 0 | 0.0 | 0.0 | 0.00 | 0.00 | 0.00 | 75 | 1010.5 |
| 20260507024036 | 64 | 0 | 0.0 | 0.0 | 0.00 | 0.00 | 0.00 | 76 | 1010.7 |
| 20260507022801 | 65 | 0 | 0.0 | 0.0 | 0.00 | 0.00 | 0.00 | 77 | 1010.3 |
| 20260507021438 | 65 | 0 | 0.0 | 0.0 | 0.00 | 0.00 | 0.00 | 77 | 1010.4 |
| 20260507015956 | 66 | 0 | 0.0 | 0.0 | 0.00 | 0.00 | 0.00 | 78 | 1010.2 |
| 20260507014702 | 66 | 0 | 0.0 | 0.0 | 0.00 | 0.00 | 0.00 | 78 | 1010.0 |
| 20260507013451 | 67 | 0 | 0.0 | 0.0 | 0.00 | 0.00 | 0.00 | 80 | 1010.3 |
| 20260507012006 | 67 | 0 | 0.0 | 0.0 | 0.00 | 0.00 | 0.00 | 81 | 1010.2 |
| 20260507010634 | 68 | 0 | 0.0 | 0.0 | 0.00 | 0.00 | 0.00 | 81 | 1010.0 |
| 20260507005246 | 68 | 0 | 0.0 | 0.0 | 0.00 | 0.00 | 0.00 | 80 | 1010.2 |
| 20260507004026 | 68 | 0 | 0.0 | 0.0 | 0.00 | 0.00 | 0.00 | 80 | 1009.9 |
| 20260507002551 | 68 | 0 | 0.0 | 0.0 | 0.00 | 0.00 | 0.00 | 80 | 1009.9 |
| 20260507001326 | 68 | 0 | 0.0 | 0.0 | 0.00 | 0.00 | 0.00 | 79 | 1009.6 |
| 20260507000139 | 68 | 0 | 0.0 | 0.0 | 0.00 | 0.00 | 0.00 | 78 | 1009.7 |
| 20260507000056 | 68 | 0 | 0.0 | 0.0 | 0.00 | 0.00 | 0.00 | 78 | 1009.7 |
| 20260506234707 | 69 | 0 | 0.0 | 0.0 | 0.00 | 0.00 | 0.00 | 78 | 1009.6 |
| 20260506233316 | 69 | 0 | 0.0 | 0.0 | 0.00 | 0.00 | 0.00 | 77 | 1009.2 |
| 20260506232114 | 69 | 0 | 0.0 | 0.0 | 0.00 | 0.00 | 0.00 | 77 | 1009.3 |
| 20260506231023 | 69 | 0 | 0.0 | 4.0 | 0.00 | 0.00 | 0.00 | 77 | 1009.1 |
| 20260506230856 | 69 | 0 | 0.0 | 4.0 | 0.00 | 0.00 | 0.00 | 77 | 1009.1 |
| 20260506225431 | 69 | 0 | 0.0 | 0.0 | 0.00 | 0.00 | 0.00 | 77 | 1008.9 |
| 20260506223956 | 69 | 0 | 0.0 | 9.0 | 0.00 | 0.00 | 0.00 | 76 | 1009.0 |
| 20260506222546 | 69 | 0 | 0.0 | 0.0 | 0.00 | 0.00 | 0.00 | 76 | 1008.8 |
| 20260506221301 | 70 | 208 | 7.0 | 7.0 | 0.00 | 0.00 | 0.00 | 76 | 1008.9 |
| 20260506215851 | 70 | 0 | 0.0 | 4.0 | 0.00 | 0.00 | 0.00 | 76 | 1008.8 |
| 20260506214421 | 70 | 227 | 2.0 | 6.0 | 0.00 | 0.00 | 0.00 | 75 | 1008.8 |
| 20260506213142 | 71 | 0 | 0.0 | 6.0 | 0.00 | 0.00 | 0.00 | 74 | 1008.8 |
| 20260506211757 | 71 | 0 | 0.0 | 12.0 | 0.00 | 0.00 | 0.00 | 74 | 1008.7 |
| 20260506210426 | 70 | 0 | 0.0 | 7.0 | 0.00 | 0.00 | 0.00 | 75 | 1008.6 |
| 20260506205057 | 70 | 0 | 0.0 | 3.0 | 0.00 | 0.00 | 0.00 | 75 | 1008.5 |
| 20260506204022 | 70 | 265 | 3.0 | 9.0 | 0.00 | 0.00 | 0.00 | 75 | 1008.3 |
| 20260506203646 | 70 | 265 | 3.0 | 9.0 | 0.00 | 0.00 | 0.00 | 75 | 1008.3 |
| 20260506202221 | 69 | 0 | 0.0 | 9.0 | 0.00 | 0.00 | 0.00 | 75 | 1008.6 |
| 20260506200741 | 70 | 213 | 5.0 | 11.0 | 0.00 | 0.00 | 0.00 | 75 | 1008.7 |
| 20260506195422 | 70 | 243 | 13.0 | 13.0 | 0.00 | 0.00 | 0.00 | 75 | 1008.6 |
| 20260506194335 | 70 | 198 | 4.0 | 9.0 | 0.00 | 0.00 | 0.00 | 74 | 1008.6 |
| 20260506194026 | 70 | 198 | 4.0 | 9.0 | 0.00 | 0.00 | 0.00 | 74 | 1008.6 |
| 20260506192616 | 70 | 205 | 3.0 | 12.0 | 0.00 | 0.00 | 0.00 | 75 | 1008.6 |
| 20260506191131 | 69 | 0 | 0.0 | 8.0 | 0.00 | 0.00 | 0.00 | 76 | 1008.8 |
| 20260506185921 | 68 | 213 | 3.0 | 10.0 | 0.00 | 0.00 | 0.00 | 78 | 1008.8 |
| 20260506184601 | 67 | 246 | 3.0 | 7.0 | 0.00 | 0.00 | 0.00 | 79 | 1008.9 |
| 20260506183341 | 67 | 0 | 0.0 | 5.0 | 0.00 | 0.00 | 0.00 | 78 | 1009.1 |
| 20260506182021 | 68 | 194 | 1.0 | 5.0 | 0.00 | 0.00 | 0.00 | 79 | 1009.3 |
| 20260506180546 | 67 | 230 | 3.0 | 3.0 | 0.00 | 0.00 | 0.00 | 82 | 1009.4 |
| 20260506175525 | 66 | 257 | 5.0 | 9.0 | 0.00 | 0.00 | 0.00 | 83 | 1009.5 |
| 20260506175316 | 66 | 257 | 5.0 | 9.0 | 0.00 | 0.00 | 0.00 | 83 | 1009.5 |
| 20260506174329 | 65 | 0 | 0.0 | 9.0 | 0.00 | 0.00 | 0.00 | 85 | 1009.6 |
| 20260506173856 | 65 | 0 | 0.0 | 9.0 | 0.00 | 0.00 | 0.00 | 85 | 1009.6 |
| 20260506173011 | 64 | 265 | 4.0 | 11.0 | 0.00 | 0.00 | 0.00 | 86 | 1009.6 |
| 20260506172431 | 64 | 265 | 4.0 | 11.0 | 0.00 | 0.00 | 0.00 | 86 | 1009.6 |
| 20260506171046 | 63 | 0 | 0.0 | 0.0 | 0.00 | 0.00 | 0.00 | 88 | 1009.7 |
| 20260506165836 | 63 | 144 | 4.0 | 14.0 | 0.00 | 0.00 | 0.00 | 89 | 1009.8 |
| 20260506164401 | 63 | 0 | 0.0 | 9.0 | 0.00 | 0.00 | 0.00 | 90 | 1009.8 |
| 20260506163116 | 62 | 0 | 0.0 | 10.0 | 0.00 | 0.00 | 0.00 | 91 | 1009.8 |
| 20260506161837 | 62 | 284 | 1.0 | 5.0 | 0.00 | 0.00 | 0.00 | 92 | 1009.8 |
| 20260506161117 | 61 | 228 | 6.0 | 9.0 | 0.00 | 0.00 | 0.00 | 92 | 1010.0 |
| 20260506160628 | 61 | 228 | 6.0 | 9.0 | 0.00 | 0.00 | 0.00 | 92 | 1010.0 |
| 20260506155752 | 61 | 182 | 6.0 | 13.0 | 0.00 | 0.00 | 0.00 | 92 | 1010.1 |
| 20260506155351 | 61 | 117 | 1.0 | 10.0 | 0.00 | 0.00 | 0.00 | 92 | 1010.1 |
| 20260506153941 | 61 | 182 | 6.0 | 13.0 | 0.00 | 0.00 | 0.00 | 92 | 1010.1 |
| 20260506153241 | 60 | 171 | 2.0 | 11.0 | 0.00 | 0.00 | 0.00 | 92 | 1010.3 |
| 20260506152736 | 60 | 171 | 2.0 | 11.0 | 0.00 | 0.00 | 0.00 | 92 | 1010.3 |
| 20260506151739 | 60 | 172 | 7.0 | 8.0 | 0.00 | 0.00 | 0.00 | 91 | 1010.3 |
| 20260506151516 | 60 | 172 | 7.0 | 8.0 | 0.00 | 0.00 | 0.00 | 91 | 1010.3 |
| 20260506150059 | 60 | 163 | 8.0 | 8.0 | 0.00 | 0.00 | 0.00 | 91 | 1010.7 |
| 20260506145323 | 60 | 0 | 0.0 | 10.0 | 0.00 | 0.00 | 0.00 | 91 | 1011.0 |
| 20260506144801 | 60 | 0 | 0.0 | 10.0 | 0.00 | 0.00 | 0.00 | 91 | 1011.0 |
| 20260506143311 | 60 | 0 | 0.0 | 7.0 | 0.00 | 0.00 | 0.00 | 91 | 1010.9 |
| 20260506142046 | 60 | 213 | 8.0 | 8.0 | 0.00 | 0.00 | 0.00 | 90 | 1011.0 |
| 20260506140756 | 61 | 195 | 5.0 | 9.0 | 0.00 | 0.00 | 0.00 | 89 | 1010.9 |
| 20260506135431 | 61 | 0 | 0.0 | 4.0 | 0.00 | 0.00 | 0.00 | 88 | 1010.9 |
| 20260506134435 | 61 | 231 | 4.0 | 4.0 | 0.00 | 0.00 | 0.00 | 88 | 1011.2 |
| 20260506134131 | 61 | 231 | 4.0 | 4.0 | 0.00 | 0.00 | 0.00 | 88 | 1011.2 |
| 20260506132827 | 62 | 0 | 0.0 | 11.0 | 0.00 | 0.00 | 0.00 | 87 | 1011.4 |
| 20260506131714 | 62 | 0 | 0.0 | 0.0 | 0.00 | 0.00 | 0.00 | 86 | 1011.5 |
| 20260506131546 | 62 | 0 | 0.0 | 0.0 | 0.00 | 0.00 | 0.00 | 86 | 1011.5 |
| 20260506130748 | 62 | 0 | 0.0 | 6.0 | 0.00 | 0.00 | 0.00 | 84 | 1011.1 |